Weather History for Casper, WY

Change the Weather History Date:

Sunday, February 10, 2013

  Actual Average Record
Temperature  
Mean Temperature 10 °F 26 °F  
Max Temperature 25 °F 36 °F 60 °F (1951)
Min Temperature -5 °F 15 °F -19 °F (1981)
Degree Days  
Heating Degree Days 55 39  
Month to date heating degree days 344 399  
Since 1 July heating degree days 4295 4776  
Cooling Degree Days 0 0  
Month to date cooling degree days 0 0  
Year to date cooling degree days 0 0  
Moisture  
Dew Point 10 °F    
Average Humidity 80    
Maximum Humidity 92    
Minimum Humidity 68    
Precipitation  
Precipitation T in 0.02 in 0.31 in (1993)
Month to date precipitation 0.21 0.19  
Year to date precipitation 0.48 0.70  
Snow  
Snow T in 0.30 in - ()
Month to date snowfall 5.1 3.4  
Since 1 July snowfall 28.3 43.0  
Snow Depth 4.00 in    
Sea Level Pressure  
Sea Level Pressure 29.96 in    
Wind  
Wind Speed 10 mph (NNW)    
Max Wind Speed 26 mph    
Max Gust Speed 32 mph    
Visibility 9 miles    
Events Snow    
T = Trace of Precipitation, MM = Missing Value Source: NWS Daily Summary

Daily Weather History Graph

Daily Weather History Graph

Search for Another Location

Airport:

Trip Planner

Search our weather history database for the weather conditions in past years. The results will help you decide how hot, cold, wet, or windy it might be!

Date:

Astronomy

Feb. 10, 2013 Rise Set
Actual Time 7:09 AM MST 5:31 PM MST
Civil Twilight 6:40 AM MST 6:00 PM MST
Nautical Twilight 6:06 AM MST 6:34 PM MST
Astronomical Twilight 5:33 AM MST 7:06 PM MST
Moon 6:59 AM MST (2/10) 6:27 PM MST (2/10)
Length of Visible Light 11h 20m
Length of Day
10h 21m
New Moon, 0% of the Moon is Illuminated
Feb 10
New Moon
Feb 17
First Quarter
Feb 25
Full
Mar 4
Last Quarter
Mar 11
New

Hourly Weather History & Observations

Time (MST) Temp. Windchill Dew Point Humidity Pressure Visibility Wind Dir Wind Speed Gust Speed Precip Events Conditions
12:53 AM 24.1 °F 12.0 °F 19.9 °F 84% 29.79 in - North 13.8 mph - N/A   Overcast
1:33 AM 23.0 °F 10.6 °F 19.4 °F 86% 29.71 in - North 13.8 mph - 0.00 in Snow Light Snow
1:50 AM 23.0 °F 11.7 °F 19.4 °F 86% 29.71 in - North 11.5 mph - 0.00 in Snow Light Snow
1:53 AM 23.0 °F 12.4 °F 19.9 °F 88% 29.81 in - North 10.4 mph - 0.00 in Snow Light Snow
2:11 AM 23.0 °F 12.4 °F 19.4 °F 86% 29.72 in - North 10.4 mph - 0.00 in Snow Light Snow
2:17 AM 23.0 °F 13.1 °F 19.4 °F 86% 29.72 in - North 9.2 mph - 0.00 in Snow Light Snow
2:27 AM 23.0 °F 10.6 °F 19.4 °F 86% 29.72 in - North 13.8 mph - 0.00 in Snow Light Snow
2:53 AM 23.0 °F 13.1 °F 19.0 °F 85% 29.82 in - NNW 9.2 mph - 0.00 in   Overcast
3:49 AM 21.2 °F 11.7 °F 17.6 °F 86% 29.73 in - North 8.1 mph - N/A   Overcast
3:53 AM 21.0 °F 11.4 °F 17.1 °F 85% 29.83 in - NNW 8.1 mph - N/A   Overcast
4:53 AM 21.0 °F 13.4 °F 18.0 °F 88% 29.85 in 10.0 mi West 5.8 mph - N/A   Overcast
5:53 AM 21.9 °F 11.7 °F 19.0 °F 89% 29.86 in 5.0 mi NNW 9.2 mph - 0.00 in   Overcast
6:53 AM 21.9 °F 9.8 °F 17.1 °F 82% 29.89 in 5.0 mi North 12.7 mph - 0.00 in   Haze
7:53 AM 21.0 °F 11.4 °F 17.1 °F 85% 29.93 in 5.0 mi North 8.1 mph - 0.00 in   Overcast
8:53 AM 21.9 °F 6.5 °F 16.0 °F 78% 29.93 in 8.0 mi North 20.7 mph 26.5 mph 0.00 in   Overcast
9:14 AM 21.2 °F 6.0 °F 15.8 °F 80% 29.82 in - North 19.6 mph - N/A   Overcast
9:53 AM 21.9 °F 6.5 °F 16.0 °F 78% 29.95 in 5.0 mi North 20.7 mph 29.9 mph N/A   Haze
10:53 AM 23.0 °F 9.2 °F 16.0 °F 74% 29.97 in 10.0 mi North 17.3 mph 31.1 mph N/A   Overcast
11:53 AM 24.1 °F 9.8 °F 15.1 °F 69% 29.97 in 10.0 mi NNE 19.6 mph - N/A   Clear
12:53 PM 23.0 °F 10.1 °F 16.0 °F 74% 29.97 in 10.0 mi North 15.0 mph - N/A   Overcast
1:53 PM 21.9 °F 8.2 °F 14.0 °F 72% 29.99 in 10.0 mi North 16.1 mph - N/A   Clear
2:53 PM 21.9 °F 11.7 °F 14.0 °F 72% 30.01 in 10.0 mi NNE 9.2 mph - N/A   Overcast
3:53 PM 21.0 °F 11.4 °F 12.9 °F 71% 30.04 in 10.0 mi NE 8.1 mph - N/A   Mostly Cloudy
4:53 PM 18.0 °F 9.8 °F 10.9 °F 74% 30.08 in 10.0 mi NNE 5.8 mph - N/A   Scattered Clouds
5:53 PM 12.9 °F - 7.0 °F 77% 30.12 in 10.0 mi Calm Calm - N/A   Clear
6:53 PM 3.0 °F - -0.0 °F 87% 30.18 in 10.0 mi Calm Calm - N/A   Clear
7:00 PM -0.4 °F - -2.2 °F 92% 29.97 in 1.8 mi Calm Calm - N/A   Clear
7:06 PM -2.2 °F -12.5 °F -5.8 °F 85% 29.97 in 10.0 mi South 4.6 mph - N/A   Partly Cloudy
7:53 PM -0.0 °F -9.9 °F -6.0 °F 76% 30.21 in 10.0 mi West 4.6 mph - N/A   Scattered Clouds
8:00 PM -0.4 °F -12.0 °F -4.0 °F 85% 29.99 in 10.0 mi WNW 5.8 mph - N/A   Mostly Cloudy
8:29 PM 1.4 °F - -4.0 °F 78% 30.00 in 10.0 mi Calm Calm - N/A   Scattered Clouds
8:53 PM -2.0 °F - -7.1 °F 79% 30.24 in 8.0 mi Calm Calm - N/A   Partly Cloudy
9:15 PM -4.0 °F - -7.6 °F 85% 30.01 in 9.0 mi Calm Calm - N/A   Mostly Cloudy
9:53 PM 1.0 °F - -2.9 °F 83% 30.23 in 10.0 mi Calm Calm - N/A   Mostly Cloudy
10:19 PM 3.2 °F -11.3 °F -2.2 °F 78% 30.01 in - WSW 9.2 mph - N/A   Mostly Cloudy
10:53 PM 5.0 °F -10.8 °F -0.9 °F 76% 30.22 in - WSW 11.5 mph - N/A   Clear
11:53 PM 6.1 °F -10.9 °F 1.0 °F 80% 30.21 in - WSW 13.8 mph - N/A   Clear